This is the latest recevied weather packets stored in our database for station/object IR1AA-3. If no packets are shown the sender has not sent any weather packets the latest 10 day(s).
| Time | Temp. | Humidity | Pressure | Rain* | Wind** | Luminosity | Snow |
|---|---|---|---|---|---|---|---|
| 1777277082 | 17.78° C | 99% | 1018.6 hPa | - | - | - | - |
| 1777275281 | 17.22° C | 99% | 1017 hPa | - | - | - | - |
| 1777273481 | 16.67° C | 99% | 1018.4 hPa | - | - | - | - |
| 1777271680 | 16.67° C | 99% | 1018.7 hPa | - | - | - | - |
| 1777269880 | 17.22° C | 99% | 1017.2 hPa | - | - | - | - |
| 1777268080 | 17.22° C | 99% | 1012.9 hPa | - | - | - | - |
| 1777266280 | 15° C | 99% | 1018.2 hPa | - | - | - | - |
| 1777264479 | 14.44° C | 99% | 1018.3 hPa | - | - | - | - |
| 1777262679 | 14.44° C | 99% | 1018 hPa | - | - | - | - |
| 1777260878 | 14.44° C | 99% | 1015.5 hPa | - | - | - | - |
| 1777260125 | 14.44° C | 99% | 1016.6 hPa | - | - | - | - |
| 1777258325 | 14.44° C | 99% | 1016.6 hPa | - | - | - | - |
| 1777256525 | 14.44° C | 99% | 1017.9 hPa | - | - | - | - |
| 1777254724 | 15° C | 99% | 1017.2 hPa | - | - | - | - |
| 1777254516 | 15° C | 99% | 1017.9 hPa | - | - | - | - |
| 1777252716 | 15.56° C | 99% | 1018.6 hPa | - | - | - | - |
| 1777250916 | 15.56° C | 99% | 1016.8 hPa | - | - | - | - |
| 1777249115 | 15.56° C | 99% | 1012.2 hPa | - | - | - | - |
| 1777247315 | 15.56° C | 99% | 1018.7 hPa | - | - | - | - |
| 1777245515 | 15.56° C | 99% | 1017.2 hPa | - | - | - | - |
| 1777243714 | 15.56° C | 99% | 1013.5 hPa | - | - | - | - |
| 1777241906 | 16.11° C | 99% | 1018.6 hPa | - | - | - | - |
| 1777240106 | 16.11° C | 99% | 1014.4 hPa | - | - | - | - |
| 1777238306 | 16.67° C | 99% | 1018.7 hPa | - | - | - | - |
| 1777236506 | 16.67° C | 99% | 1018.9 hPa | - | - | - | - |
* Rain since midnight (hover to see other rain measurements)
** Current wind speed in m/s (hover to see current wind gust speed)